When you browse on this site, cookies collect data to enhance your experience and personalize the content and advertising you see.
Visit our Privacy Policy to learn more. By continuing to use the site, you agree to this use of cookies and data.
  • en Suisse
  • Liste des pays
  • À 7 jours
  • Température de l'eau
  • Carte météo
  • Widgets météo
  • user-avatar
    Se connecter

    Météo par heure à Mazarron

    Ce jour, 17 Septembre, Mardi

    Heure Température Précipitation Vent Pression Humidité
    00:00 +23°C° 0 mm 0 m/s 747 mmHg 88%
    01:00 +22°C° 0 mm 0 m/s 747 mmHg 89%
    02:00 +22°C° 0 mm 0 m/s 747 mmHg 90%
    03:00 +22°C° 0 mm 0 m/s 746 mmHg 91%
    04:00 +22°C° 0 mm 0 m/s 746 mmHg 90%
    05:00 +24°C° 0 mm 1 m/s 747 mmHg 88%
    06:00 +24°C° 0 mm 1 m/s 747 mmHg 87%
    07:00 +25°C° 0 mm 1 m/s 747 mmHg 83%
    08:00 +26°C° 0 mm 1 m/s 747 mmHg 78%
    09:00 +26°C° 0 mm 1 m/s 747 mmHg 73%
    10:00 +27°C° 0 mm 1 m/s 746 mmHg 66%
    11:00 +29°C° 0 mm 2 m/s 746 mmHg 59%
    12:00 +30°C° 0 mm 3 m/s 746 mmHg 52%
    13:00 +30°C° 0 mm 3 m/s 746 mmHg 53%
    14:00 +30°C° 0 mm 3 m/s 745 mmHg 54%
    15:00 +30°C° 0 mm 3 m/s 745 mmHg 55%
    16:00 +29°C° 0 mm 3 m/s 745 mmHg 60%
    17:00 +28°C° 0 mm 3 m/s 744 mmHg 65%
    18:00 +27°C° 0 mm 2 m/s 744 mmHg 70%
    19:00 +27°C° 0 mm 2 m/s 744 mmHg 73%
    20:00 +26°C° 0 mm 2 m/s 745 mmHg 76%
    21:00 +26°C° 0 mm 1 m/s 745 mmHg 80%
    22:00 +26°C° 0 mm 1 m/s 745 mmHg 81%
    23:00 +25°C° 0 mm 1 m/s 745 mmHg 83%

    Demain, 18 Septembre, Mercredi

    Heure Température Précipitation Vent Pression Humidité
    00:00 +25°C° 0 mm 1 m/s 745 mmHg 85%
    01:00 +25°C° 0 mm 1 m/s 745 mmHg 86%
    02:00 +24°C° 0 mm 1 m/s 745 mmHg 86%
    03:00 +24°C° 0 mm 1 m/s 744 mmHg 87%
    04:00 +22°C° 0 mm 0 m/s 744 mmHg 87%
    05:00 +21°C° 0 mm 0 m/s 744 mmHg 87%
    06:00 +21°C° 0 mm 0 m/s 744 mmHg 87%
    07:00 +23°C° 0 mm 0 m/s 745 mmHg 79%
    08:00 +24°C° 0 mm 0 m/s 745 mmHg 72%
    09:00 +25°C° 0 mm 0 m/s 745 mmHg 64%
    10:00 +28°C° 0 mm 1 m/s 745 mmHg 58%
    11:00 +29°C° 0 mm 2 m/s 745 mmHg 53%
    12:00 +30°C° 0 mm 2 m/s 745 mmHg 47%
    13:00 +30°C° 0 mm 2 m/s 745 mmHg 49%
    14:00 +30°C° 0 mm 2 m/s 745 mmHg 51%
    15:00 +30°C° 0 mm 2 m/s 745 mmHg 53%
    16:00 +29°C° 0 mm 2 m/s 745 mmHg 57%
    17:00 +29°C° 0 mm 2 m/s 745 mmHg 61%
    18:00 +28°C° 0 mm 2 m/s 744 mmHg 65%
    19:00 +27°C° 0 mm 1 m/s 745 mmHg 68%
    20:00 +27°C° 0 mm 1 m/s 745 mmHg 70%
    21:00 +26°C° 0 mm 1 m/s 746 mmHg 73%
    22:00 +26°C° 0 mm 1 m/s 746 mmHg 74%
    23:00 +26°C° 0 mm 2 m/s 746 mmHg 75%

    Après-demain, 19 Septembre, Jeudi

    Heure Température Précipitation Vent Pression Humidité
    00:00 +25°C° 0 mm 2 m/s 746 mmHg 77%
    01:00 +25°C° 0 mm 2 m/s 745 mmHg 77%
    02:00 +25°C° 0 mm 2 m/s 745 mmHg 78%
    03:00 +24°C° 0 mm 1 m/s 745 mmHg 78%
    04:00 +24°C° 0 mm 1 m/s 745 mmHg 79%
    05:00 +24°C° 0 mm 1 m/s 745 mmHg 79%
    06:00 +24°C° 0 mm 1 m/s 745 mmHg 80%
    07:00 +25°C° 0 mm 1 m/s 745 mmHg 75%
    08:00 +26°C° 0 mm 2 m/s 746 mmHg 71%
    09:00 +27°C° 0 mm 2 m/s 746 mmHg 67%
    10:00 +27°C° 0 mm 2 m/s 746 mmHg 63%
    11:00 +28°C° 0 mm 2 m/s 746 mmHg 59%
    12:00 +29°C° 0 mm 2 m/s 746 mmHg 55%
    13:00 +29°C° 0 mm 2 m/s 746 mmHg 54%
    14:00 +30°C° 0 mm 2 m/s 746 mmHg 53%
    15:00 +30°C° 0 mm 3 m/s 745 mmHg 52%
    16:00 +29°C° 0 mm 3 m/s 745 mmHg 58%
    17:00 +28°C° 0 mm 2 m/s 745 mmHg 64%
    18:00 +27°C° 0 mm 2 m/s 746 mmHg 69%
    19:00 +26°C° 0 mm 2 m/s 746 mmHg 73%
    20:00 +26°C° 0 mm 2 m/s 746 mmHg 77%
    21:00 +25°C° 0 mm 2 m/s 747 mmHg 81%
    22:00 +25°C° 0 mm 2 m/s 747 mmHg 82%
    23:00 +25°C° 0 mm 3 m/s 747 mmHg 83%

    20 Septembre, Vendredi

    Heure Température Précipitation Vent Pression Humidité
    00:00 +25°C° 0 mm 3 m/s 747 mmHg 84%
    01:00 +24°C° 0 mm 3 m/s 746 mmHg 83%
    02:00 +23°C° 0 mm 4 m/s 746 mmHg 83%
    03:00 +23°C° 0 mm 4 m/s 746 mmHg 82%
    04:00 +23°C° 0 mm 4 m/s 746 mmHg 84%
    05:00 +23°C° 0 mm 4 m/s 745 mmHg 85%
    06:00 +22°C° 0 mm 4 m/s 745 mmHg 87%
    07:00 +23°C° 0 mm 5 m/s 746 mmHg 84%
    08:00 +23°C° 0 mm 5 m/s 746 mmHg 81%
    09:00 +24°C° 0 mm 6 m/s 746 mmHg 78%
    10:00 +24°C° 0 mm 6 m/s 746 mmHg 75%
    11:00 +26°C° 0 mm 7 m/s 746 mmHg 72%
    12:00 +27°C° 0 mm 8 m/s 746 mmHg 68%
    13:00 +27°C° 0 mm 8 m/s 745 mmHg 67%
    14:00 +27°C° 0 mm 7 m/s 745 mmHg 66%
    15:00 +27°C° 0 mm 7 m/s 744 mmHg 65%
    16:00 +27°C° 0 mm 6 m/s 744 mmHg 69%
    17:00 +26°C° 0 mm 6 m/s 744 mmHg 73%
    18:00 +24°C° 0 mm 6 m/s 743 mmHg 77%
    19:00 +25°C° 0.5 mm 5 m/s 744 mmHg 79%
    20:00 +25°C° 0.5 mm 5 m/s 745 mmHg 81%
    21:00 +23°C° 0.5 mm 5 m/s 745 mmHg 84%
    22:00 +23°C° 0.2 mm 4 m/s 745 mmHg 84%
    23:00 +24°C° 0.2 mm 2 m/s 745 mmHg 85%

    21 Septembre, Samedi

    Heure Température Précipitation Vent Pression Humidité
    00:00 +24°C° 0.2 mm 1 m/s 745 mmHg 85%
    01:00 +24°C° 0.4 mm 2 m/s 744 mmHg 84%
    02:00 +24°C° 0.4 mm 3 m/s 744 mmHg 82%
    03:00 +22°C° 0.4 mm 4 m/s 744 mmHg 81%
    04:00 +22°C° 0.1 mm 4 m/s 744 mmHg 82%
    05:00 +22°C° 0.1 mm 3 m/s 744 mmHg 83%
    06:00 +22°C° 0.1 mm 3 m/s 744 mmHg 84%
    07:00 +24°C° 0.2 mm 2 m/s 744 mmHg 80%
    08:00 +25°C° 0.2 mm 2 m/s 744 mmHg 76%
    09:00 +25°C° 0.2 mm 1 m/s 744 mmHg 72%
    10:00 +27°C° 0 mm 2 m/s 744 mmHg 65%
    11:00 +28°C° 0 mm 3 m/s 744 mmHg 58%
    12:00 +29°C° 0 mm 4 m/s 744 mmHg 51%
    13:00 +29°C° 0 mm 4 m/s 743 mmHg 51%
    14:00 +29°C° 0 mm 3 m/s 743 mmHg 51%
    15:00 +29°C° 0 mm 3 m/s 743 mmHg 51%
    16:00 +29°C° 0 mm 3 m/s 743 mmHg 53%
    17:00 +28°C° 0 mm 2 m/s 743 mmHg 55%
    18:00 +27°C° 0 mm 1 m/s 743 mmHg 58%
    19:00 +27°C° 0 mm 2 m/s 743 mmHg 61%
    20:00 +26°C° 0 mm 2 m/s 744 mmHg 65%
    21:00 +26°C° 0 mm 2 m/s 744 mmHg 69%
    22:00 +26°C° 0 mm 1 m/s 744 mmHg 71%
    23:00 +25°C° 0 mm 1 m/s 744 mmHg 73%

    22 Septembre, Dimanche

    Heure Température Précipitation Vent Pression Humidité
    00:00 +25°C° 0 mm 1 m/s 744 mmHg 75%
    01:00 +25°C° 0 mm 1 m/s 744 mmHg 75%
    02:00 +25°C° 0 mm 1 m/s 744 mmHg 75%
    03:00 +25°C° 0 mm 1 m/s 744 mmHg 74%
    04:00 +25°C° 0 mm 1 m/s 744 mmHg 74%
    05:00 +25°C° 0 mm 1 m/s 744 mmHg 73%
    06:00 +25°C° 0 mm 1 m/s 744 mmHg 72%
    07:00 +26°C° 0 mm 1 m/s 745 mmHg 67%
    08:00 +26°C° 0 mm 1 m/s 745 mmHg 62%
    09:00 +27°C° 0 mm 2 m/s 746 mmHg 57%
    10:00 +28°C° 0 mm 2 m/s 746 mmHg 54%
    11:00 +29°C° 0 mm 2 m/s 746 mmHg 51%
    12:00 +30°C° 0 mm 2 m/s 746 mmHg 47%
    13:00 +30°C° 0 mm 2 m/s 746 mmHg 47%
    14:00 +30°C° 0 mm 2 m/s 746 mmHg 47%
    15:00 +31°C° 0 mm 2 m/s 745 mmHg 47%
    16:00 +30°C° 0 mm 2 m/s 746 mmHg 52%
    17:00 +29°C° 0 mm 2 m/s 746 mmHg 57%
    18:00 +28°C° 0 mm 2 m/s 746 mmHg 63%
    19:00 +27°C° 0 mm 2 m/s 747 mmHg 67%
    20:00 +26°C° 0 mm 2 m/s 747 mmHg 71%
    21:00 +26°C° 0 mm 2 m/s 748 mmHg 74%
    22:00 +25°C° 0 mm 1 m/s 748 mmHg 77%
    23:00 +25°C° 0 mm 1 m/s 748 mmHg 80%
    Voir plus